Weather History for Benton Harbor, MI

Change the Weather History Date:

Wednesday, February 6, 2013

  Actual Average Record
Temperature  
Mean Temperature 24 °F -  
Max Temperature 33 °F 29 °F 53 °F (1964)
Min Temperature 16 °F 15 °F -6 °F (1979)
Degree Days  
Heating Degree Days 40    
Moisture  
Dew Point 18 °F    
Average Humidity 66    
Maximum Humidity 88    
Minimum Humidity 54    
Precipitation  
Precipitation 0.00 in - - ()
Sea Level Pressure  
Sea Level Pressure 30.19 in    
Wind  
Wind Speed 5 mph (SSE)    
Max Wind Speed 13 mph    
Max Gust Speed -    
Visibility 9 miles    
Events      
Averages and records for this station are not official NWS values.
T = Trace of Precipitation, MM = Missing Value Source: NWS Daily Summary

Daily Weather History Graph

Daily Weather History Graph

Search for Another Location

Airport:

Trip Planner

Search our weather history database for the weather conditions in past years. The results will help you decide how hot, cold, wet, or windy it might be!

Date:

Astronomy

Feb. 06, 2013 Rise Set
Actual Time 7:52 AM EST 6:07 PM EST
Civil Twilight 7:23 AM EST 6:36 PM EST
Nautical Twilight 6:50 AM EST 7:09 PM EST
Astronomical Twilight 6:17 AM EST 7:42 PM EST
Moon 4:38 AM EST (2/6) 2:22 PM EST (2/6)
Length of Visible Light 11h 12m
Length of Day
10h 14m
Waning Crescent, 17% of the Moon is Illuminated
Feb 6
Waning Crescent
Feb 10
New
Feb 17
First Quarter
Feb 25
Full
Mar 4
Last Quarter

Hourly Weather History & Observations

Time (EST) Temp. Windchill Dew Point Humidity Pressure Visibility Wind Dir Wind Speed Gust Speed Precip Events Conditions
12:21 AM 30.2 °F 24.3 °F 21.2 °F 69% 30.03 in 10.0 mi Variable 5.8 mph - N/A   Overcast
12:53 AM 28.9 °F 25.2 °F 21.0 °F 72% 30.07 in 10.0 mi Variable 3.5 mph - N/A   Overcast
1:53 AM 28.0 °F 20.8 °F 18.0 °F 66% 30.09 in 10.0 mi Variable 6.9 mph - N/A   Overcast
2:53 AM 28.9 °F - 19.0 °F 67% 30.12 in 10.0 mi Calm Calm - N/A   Overcast
3:17 AM 28.4 °F 23.3 °F 17.6 °F 64% 30.11 in 10.0 mi Variable 4.6 mph - N/A   Overcast
3:26 AM 28.4 °F 24.6 °F 17.6 °F 64% 30.11 in 10.0 mi Variable 3.5 mph - N/A   Overcast
3:53 AM 28.0 °F 24.2 °F 18.0 °F 66% 30.13 in 10.0 mi Variable 3.5 mph - N/A   Overcast
4:53 AM 28.0 °F 21.7 °F 16.0 °F 61% 30.15 in 10.0 mi NNW 5.8 mph - N/A   Overcast
5:53 AM 27.0 °F - 15.1 °F 61% 30.17 in 10.0 mi Calm Calm - N/A   Scattered Clouds
6:53 AM 19.9 °F - 14.0 °F 78% 30.20 in 10.0 mi Calm Calm - N/A   Scattered Clouds
7:53 AM 16.0 °F - 12.9 °F 88% 30.22 in 10.0 mi Calm Calm - N/A   Mostly Cloudy
8:53 AM 17.1 °F 10.0 °F 12.9 °F 84% 30.23 in 10.0 mi SSE 4.6 mph - N/A   Overcast
9:53 AM 25.0 °F 20.7 °F 17.1 °F 72% 30.25 in 10.0 mi SSE 3.5 mph - N/A   Clear
10:53 AM 28.9 °F 22.8 °F 17.1 °F 61% 30.25 in 10.0 mi South 5.8 mph - N/A   Clear
11:53 AM 30.0 °F 24.1 °F 18.0 °F 61% 30.28 in 10.0 mi South 5.8 mph - N/A   Clear
12:53 PM 30.9 °F 23.5 °F 17.1 °F 57% 30.26 in 10.0 mi SSW 8.1 mph - N/A   Clear
1:53 PM 32.0 °F 24.8 °F 17.1 °F 54% 30.23 in 10.0 mi SSE 8.1 mph - N/A   Clear
2:53 PM 32.0 °F 28.7 °F 17.1 °F 54% 30.24 in 10.0 mi South 3.5 mph - N/A   Clear
3:53 PM 33.1 °F 26.1 °F 18.0 °F 54% 30.23 in 10.0 mi South 8.1 mph - N/A   Clear
4:53 PM 32.0 °F 24.8 °F 18.0 °F 56% 30.22 in 10.0 mi SE 8.1 mph - N/A   Partly Cloudy
5:53 PM 32.0 °F 28.7 °F 19.9 °F 61% 30.24 in 10.0 mi South 3.5 mph - N/A   Overcast
6:53 PM 30.9 °F 26.2 °F 21.0 °F 67% 30.24 in 9.0 mi SE 4.6 mph - N/A   Overcast
7:53 PM 30.0 °F 23.2 °F 21.0 °F 69% 30.23 in 8.0 mi SE 6.9 mph - N/A   Clear
8:53 PM 30.9 °F 23.5 °F 21.0 °F 67% 30.19 in 7.0 mi SE 8.1 mph - N/A   Overcast
9:53 PM 30.9 °F 21.2 °F 21.9 °F 69% 30.18 in 7.0 mi SE 12.7 mph - N/A   Overcast
10:53 PM 30.9 °F 26.2 °F 21.9 °F 69% 30.21 in 6.0 mi SSE 4.6 mph - N/A   Haze
11:53 PM 30.9 °F 22.8 °F 23.0 °F 72% 30.17 in 6.0 mi SE 9.2 mph - N/A   Haze